Location: Buisson
(44.2787°N, 4.9969°E)
Time: 06:55:51
(UTC+00:00)

X-37B - Pass Details

Date: 18 April 2021
Orbit: 386 x 389 km, 45.0° (Epoch: 04 May)

Event Time Altitude Azimuth Distance (km) Brightness Sun altitude
Exits shadow 03:16:30 41° 204° (SSW) 570 1.0 -16.2°
Maximum altitude 03:17:10 52° 160° (SSE) 490 0.9 -16.1°
Drops below altitude 10° 03:20:17 10° 82° (E) 1,413 4.4 -15.6°
Sets 03:22:23 0° 78° (ENE) 2,269 5.9 -15.3°
